Overview Statistics Trail Chart Weather Telemetry Raw packets
 

This is the latest recevied weather packets stored in our database for station/object WW5JC. If no packets are shown the sender has not sent any weather packets the latest 10 day(s).

<< 21 22 23 24 25 26 27 >>
Time Temp. Humidity Pressure Rain* Wind** Luminosity Snow
1788483173 31.11° C 66% 1013.6 hPa 0 mm - 1 W/m² -
1788482868 31.11° C 65% 1013.7 hPa 0 mm - 2 W/m² -
1788482564 31.11° C 65% 1013.6 hPa 0 mm - 3 W/m² -
1788482258 31.11° C 64% 1013.7 hPa 0 mm - 4 W/m² -
1788481955 31.67° C 64% 1013.7 hPa 0 mm - 7 W/m² -
1788481650 31.67° C 63% 1013.8 hPa 0 mm - 11 W/m² -
1788481347 31.67° C 62% 1013.6 hPa 0 mm - 14 W/m² -
1788481041 31.67° C 61% 1013.5 hPa 0 mm - 15 W/m² -
1788480740 32.22° C 61% 1013.4 hPa 0 mm - 18 W/m² -
1788480435 32.22° C 60% 1013.4 hPa 0 mm - 21 W/m² -
1788480129 32.22° C 60% 1013.4 hPa 0 mm - 23 W/m² -
1788479824 32.22° C 60% 1013.4 hPa 0 mm - 25 W/m² -
1788479520 32.78° C 59% 1013.3 hPa 0 mm - 28 W/m² -
1788479214 32.78° C 58% 1013.6 hPa 0 mm - 42 W/m² -
1788478910 32.78° C 58% 1013.5 hPa 0 mm - 39 W/m² -
1788478606 32.78° C 58% 1013.4 hPa 0 mm - 31 W/m² -
1788478302 33.33° C 57% 1013.5 hPa 0 mm - 49 W/m² -
1788477996 33.33° C 57% 1013.4 hPa 0 mm - 51 W/m² -
1788477692 33.33° C 57% 1013.5 hPa 0 mm - 79 W/m² -
1788477386 33.33° C 57% 1013.3 hPa 0 mm - 103 W/m² -
1788477086 33.33° C 57% 1013.3 hPa 0 mm - 175 W/m² -
1788476782 33.33° C 56% 1013.4 hPa 0 mm - 166 W/m² -
1788476480 33.33° C 56% 1013.4 hPa 0 mm - 186 W/m² -
1788476178 33.33° C 57% 1013.5 hPa 0 mm - 201 W/m² -
1788475874 33.33° C 57% 1013.5 hPa 0 mm - 75 W/m² -

* Rain latest hour (hover to see other rain measurements)
** Current wind speed in m/s (hover to see current wind gust speed)